Regional Weather Roundup
Issued by NWS

Home | Current Version | Previous Version | Graphics & Text | Print | Product List | Glossary On
Versions: 1 2 3 4 5 6 7 8 9 10 11 12 13 14 15 16 17 18 19 20 21 22 23 24 25 26 27 28 29 30 31 32 33 34 35 36 37 38 39 40 41 42 43 44 45 46 47 48 49 50
000
ASUS44 KMEG 241510
RWRTN
TENNESSEE HOURLY STATE WEATHER ROUNDUP
NATIONAL WEATHER SERVICE MEMPHIS TN
1000 AM CDT MON JUL 24 2017

TNZ002-004-019-021-049-052-054-088>092-241600-
WEST TENNESSEE

CITY           SKY/WX    TMP DP  RH WIND       PRES   REMARKS
MEMPHIS INTL   PTSUNNY   84  74  71 VRB3      29.96S HX  91
NWS MEMPHIS      N/A     84 N/A N/A MISG        N/A
JACKSON        CLOUDY    80  75  84 CALM      29.97S
SOMERVILLE       N/A     84  73  70 VRB3      29.96S HX  91
COVINGTON      SUNNY     81  73  78 S5        29.96F
UNION CITY     SUNNY     79  73  83 S6        29.95F
BOLIVAR        SUNNY     84  72  65 CALM      29.96S
PARIS          SUNNY     79  73  83 SW5       29.96S
HUNTINGDON     SUNNY     81  73  78 VRB6      29.96S
LEXINGTON      SUNNY     81  75  83 SW7       29.97S
SELMER         MOSUNNY   81  75  83 CALM      29.97S
SAVANNAH       MOSUNNY   82  75  78 CALM      29.96F
$$

TNZ008-025-027-028-033-062-065-066-241600-
NORTH MIDDLE TENNESSEE

CITY           SKY/WX    TMP DP  RH WIND       PRES   REMARKS
NASHVILLE      PTSUNNY   83  69  62 CALM      29.98S
PORTLAND       SUNNY     82  73  74 W3        29.97S
CLARKSVILLE    CLOUDY    82  72  71 CALM      29.96S
SMYRNA         SUNNY     81  70  69 CALM      29.99S
COOKEVILLE     MOSUNNY   77  70  78 S5        30.00S
GALLATIN       SUNNY     82  72  69 SW3       30.00S
CROSSVILLE     SUNNY     76  68  76 W3        30.05S
$$

TNZ061-075-076-078-094-096-097-241600-
SOUTH MIDDLE TENNESSEE

CITY           SKY/WX    TMP DP  RH WIND       PRES   REMARKS
FAYETTEVILLE   MOSUNNY   77  73  88 CALM      29.99F
TULLAHOMA      SUNNY     79  70  73 CALM      30.02R
WINCHESTER     SUNNY     81  72  74 CALM      30.00S
MCMINNVILLE    SUNNY     79  72  78 S5        30.01S
COLUMBIA       MOSUNNY   81  72  74 SW5       29.96S
SHELBYVILLE    SUNNY     77  70  78 CALM      29.99S
$$

TNZ017-018-042-046-047-241600-
NORTHEAST TENNESSEE

CITY           SKY/WX    TMP DP  RH WIND       PRES   REMARKS
TRI CITIES     PTSUNNY   75  68  78 SW6       30.02R
ELIZABETHTON   CLOUDY    75  68  78 CALM      30.02S
$$

TNZ012-013-036-069-073-074-241600-
CENTRAL EAST TENNESSEE

CITY           SKY/WX    TMP DP  RH WIND       PRES   REMARKS
KNOXVILLE      PTSUNNY   79  70  74 VRB5      30.00R
OAK RIDGE      MOSUNNY   80  69  69 W5        30.01S
DOWNTOWN KNOXV PTSUNNY   79  73  83 W5        29.99S
GATLINBURG     MOSUNNY   81  72  74 W3        29.99S
MORRISTOWN     CLOUDY    75  70  83 W3        30.01R
JACKSBORO      MOSUNNY   79  72  78 CALM      30.03S
$$

TNZ083-085-099-241600-
SOUTHEAST TENNESSEE

CITY           SKY/WX    TMP DP  RH WIND       PRES   REMARKS
CHATTANOOGA    PTSUNNY   82  71  69 VRB5      29.99S
DAYTON         SUNNY     81  72  74 SW5       29.99S
$$

SKY/WX REPORTED AS FAIR MEANS FEW OR NO CLOUDS BELOW
12 THOUSAND FEET.





USA.gov is the U.S. government's official web portal to all federal, state and local government web resources and services.